Weather History for Tillamook, OR

Change the Weather History Date:

Friday, August 16, 2013

  Actual Average (KMMV) Record (KMMV)
Temperature  
Mean Temperature 67 °F 66 °F  
Max Temperature 75 °F 82 °F 108 °F (1927)
Min Temperature 59 °F 51 °F 38 °F (1955)
Degree Days  
Heating Degree Days 0 1  
Month to date heating degree days 16  
Since 1 July heating degree days 60  
Cooling Degree Days 2 3  
Month to date cooling degree days 48  
Year to date cooling degree days 148  
Growing Degree Days 17 (Base 50)    
Moisture  
Dew Point 61 °F    
Average Humidity 89    
Maximum Humidity 100    
Minimum Humidity 60    
Precipitation  
Precipitation 0.00 in 0.02 in 0.38 in (1912)
Month to date precipitation 0.23  
Year to date precipitation 21.98  
Snow  
Snow 0.00 in - - ()
Month to date snowfall  
Since 1 June snowfall  
Since 1 July snowfall  
Snow Depth -    
Sea Level Pressure  
Sea Level Pressure 30.03 in    
Wind  
Wind Speed 1 mph (WNW)    
Max Wind Speed 10 mph    
Max Gust Speed -    
Visibility 7 miles    
Events Fog    
T = Trace of Precipitation, MM = Missing Value Source: NWS Daily Summary

Daily Weather History Graph

Daily Weather History Graph

Search for Another Location

Airport:

Trip Planner

Search our weather history database for the weather conditions in past years. The results will help you decide how hot, cold, wet, or windy it might be!

Date:

Astronomy

Aug. 16, 2013 Rise Set
Actual Time 7:17 AM MDT 9:20 PM MDT
Civil Twilight 6:45 AM MDT 9:52 PM MDT
Nautical Twilight 6:06 AM MDT 10:31 PM MDT
Astronomical Twilight 5:22 AM MDT 11:14 PM MDT
Moon 5:50 PM MDT (8/16) 2:20 AM MDT (8/16)
Length of Visible Light 15h 06m
Length of Day
14h 02m
Waxing Gibbous, 75% of the Moon is Illuminated
Aug 16
Waxing Gibbous
Aug 20
Full
Aug 28
Last Quarter
Sep 5
New
Sep 12
First Quarter

Hourly Weather History & Observations

Time (MDT) Temp. Dew Point Humidity Pressure Visibility Wind Dir Wind Speed Gust Speed Precip Events Conditions
12:15 AM 62.6 °F 62.6 °F 100% 30.00 in 7.0 mi Calm Calm - N/A   Overcast
12:35 AM 62.6 °F 62.6 °F 100% 30.00 in 7.0 mi Calm Calm - N/A   Overcast
12:55 AM 62.6 °F 62.6 °F 100% 30.00 in 7.0 mi NW 3.5 mph - N/A   Overcast
1:15 AM 62.6 °F 62.6 °F 100% 30.01 in 1.2 mi Calm Calm - N/A   Overcast
1:35 AM 62.6 °F 62.6 °F 100% 30.01 in 0.5 mi Calm Calm - N/A Fog Fog
1:55 AM 62.6 °F 62.6 °F 100% 30.01 in 0.5 mi Calm Calm - N/A Fog Fog
2:15 AM 62.6 °F 62.6 °F 100% 30.01 in 0.5 mi Calm Calm - N/A Fog Fog
2:35 AM 62.6 °F 62.6 °F 100% 30.00 in 0.5 mi Calm Calm - N/A Fog Fog
2:55 AM 62.6 °F 62.6 °F 100% 30.00 in 0.5 mi Calm Calm - N/A Fog Fog
3:15 AM 62.6 °F 62.6 °F 100% 29.99 in 0.5 mi Calm Calm - N/A Fog Fog
3:35 AM 62.6 °F 62.6 °F 100% 29.99 in 0.5 mi Calm Calm - N/A Fog Fog
3:55 AM 62.6 °F 62.6 °F 100% 29.99 in 0.5 mi Calm Calm - N/A Fog Fog
4:15 AM 62.6 °F 62.6 °F 100% 29.99 in 0.2 mi Calm Calm - N/A Fog Fog
4:35 AM 62.6 °F 62.6 °F 100% 30.00 in 0.2 mi Calm Calm - N/A Fog Fog
4:55 AM 62.6 °F 62.6 °F 100% 30.00 in 0.2 mi Calm Calm - N/A Fog Fog
5:15 AM 60.8 °F 60.8 °F 100% 30.00 in 0.5 mi ESE 3.5 mph - N/A Fog Fog
5:35 AM 60.8 °F 60.8 °F 100% 30.00 in 2.5 mi Calm Calm - N/A   Overcast
5:55 AM 60.8 °F 60.8 °F 100% 30.00 in 7.0 mi Calm Calm - N/A   Overcast
6:15 AM 60.8 °F 60.8 °F 100% 30.00 in 10.0 mi Calm Calm - N/A   Overcast
6:35 AM 60.8 °F 60.8 °F 100% 30.00 in 10.0 mi Calm Calm - N/A   Overcast
6:55 AM 60.8 °F 60.8 °F 100% 30.00 in 2.5 mi Calm Calm - N/A   Overcast
7:15 AM 60.8 °F 60.8 °F 100% 30.00 in 2.5 mi Calm Calm - N/A   Overcast
7:35 AM 60.8 °F 60.8 °F 100% 30.00 in 1.8 mi Calm Calm - N/A   Overcast
7:55 AM 60.8 °F 60.8 °F 100% 30.01 in 1.0 mi Calm Calm - N/A   Overcast
8:15 AM 60.8 °F 60.8 °F 100% 30.01 in 1.2 mi Calm Calm - N/A   Overcast
8:35 AM 62.6 °F 62.6 °F 100% 30.01 in 1.2 mi Calm Calm - N/A   Overcast
8:55 AM 62.6 °F 62.6 °F 100% 30.01 in 2.0 mi Calm Calm - N/A   Overcast
9:15 AM 62.6 °F 62.6 °F 100% 30.01 in 5.0 mi Calm Calm - N/A   Overcast
9:35 AM 62.6 °F 62.6 °F 100% 30.01 in 5.0 mi Calm Calm - N/A   Overcast
9:55 AM 62.6 °F 62.6 °F 100% 30.02 in 10.0 mi Calm Calm - N/A   Overcast
10:15 AM 62.6 °F 62.6 °F 100% 30.02 in 10.0 mi Calm Calm - N/A   Overcast
10:35 AM 64.4 °F 64.4 °F 100% 30.01 in 10.0 mi Calm Calm - N/A   Overcast
10:55 AM 64.4 °F 64.4 °F 100% 30.01 in 10.0 mi Calm Calm - N/A   Overcast
11:15 AM 66.2 °F 66.2 °F 100% 30.01 in 10.0 mi Calm Calm - N/A   Overcast
11:35 AM 68.0 °F 66.2 °F 94% 30.01 in 10.0 mi NW 3.5 mph - N/A   Overcast
11:55 AM 68.0 °F 66.2 °F 94% 30.02 in 10.0 mi WNW 5.8 mph - N/A   Overcast
12:15 PM 68.0 °F 64.4 °F 88% 30.03 in 10.0 mi NW 3.5 mph - N/A   Overcast
12:35 PM 68.0 °F 66.2 °F 94% 30.04 in 10.0 mi WSW 6.9 mph - N/A   Overcast
12:55 PM 68.0 °F 64.4 °F 88% 30.04 in 10.0 mi WNW 5.8 mph - N/A   Overcast
1:15 PM 69.8 °F 64.4 °F 83% 30.04 in 10.0 mi NW 3.5 mph - N/A   Overcast
1:35 PM 69.8 °F 64.4 °F 83% 30.04 in 10.0 mi Calm Calm - N/A   Overcast
1:55 PM 71.6 °F 66.2 °F 83% 30.04 in 10.0 mi WNW 6.9 mph - N/A   Overcast
2:15 PM 71.6 °F 64.4 °F 78% 30.04 in 10.0 mi West 6.9 mph - N/A   Overcast
2:35 PM 69.8 °F 64.4 °F 83% 30.05 in 10.0 mi West 9.2 mph - N/A   Overcast
2:55 PM 69.8 °F 62.6 °F 78% 30.05 in 10.0 mi WNW 8.1 mph - N/A   Overcast
3:15 PM 69.8 °F 62.6 °F 78% 30.05 in 10.0 mi NW 5.8 mph - N/A   Overcast
3:35 PM 71.6 °F 62.6 °F 73% 30.06 in 10.0 mi WNW 6.9 mph - N/A   Overcast
3:55 PM 71.6 °F 62.6 °F 73% 30.06 in 10.0 mi NW 6.9 mph - N/A   Overcast
4:15 PM 71.6 °F 62.6 °F 73% 30.05 in 10.0 mi West 4.6 mph - N/A   Overcast
4:35 PM 73.4 °F 60.8 °F 65% 30.05 in 10.0 mi WSW 6.9 mph - N/A   Overcast
4:55 PM 75.2 °F 60.8 °F 61% 30.05 in 10.0 mi WNW 9.2 mph - N/A   Overcast
5:15 PM 69.8 °F 60.8 °F 73% 30.05 in 10.0 mi West 9.2 mph - N/A   Overcast
5:35 PM 71.6 °F 60.8 °F 69% 30.05 in 10.0 mi West 9.2 mph - N/A   Overcast
5:55 PM 69.8 °F 59.0 °F 68% 30.06 in 10.0 mi West 10.4 mph - N/A   Overcast
6:15 PM 68.0 °F 55.4 °F 64% 30.06 in 10.0 mi West 8.1 mph - N/A   Mostly Cloudy
6:35 PM 69.8 °F 55.4 °F 60% 30.06 in 10.0 mi WNW 5.8 mph - N/A   Scattered Clouds
6:55 PM 68.0 °F 55.4 °F 64% 30.06 in 10.0 mi Calm Calm - N/A   Scattered Clouds
7:15 PM 68.0 °F 55.4 °F 64% 30.05 in 10.0 mi Calm Calm - N/A   Clear
7:35 PM 69.8 °F 55.4 °F 60% 30.05 in 10.0 mi Calm Calm - N/A   Clear
7:55 PM 69.8 °F 55.4 °F 60% 30.05 in 10.0 mi Calm Calm - N/A   Clear
8:15 PM 69.8 °F 57.2 °F 64% 30.05 in 10.0 mi Calm Calm - N/A   Clear
8:35 PM 64.4 °F 57.2 °F 77% 30.06 in 10.0 mi West 5.8 mph - N/A   Clear
8:55 PM 62.6 °F 57.2 °F 82% 30.07 in 10.0 mi Calm Calm - N/A   Clear
9:15 PM 60.8 °F 57.2 °F 88% 30.07 in 10.0 mi Calm Calm - N/A   Clear
9:35 PM 60.8 °F 57.2 °F 88% 30.07 in 10.0 mi Calm Calm - N/A   Clear
9:55 PM 59.0 °F 57.2 °F 94% 30.08 in 10.0 mi Calm Calm - N/A   Clear
10:15 PM 59.0 °F 59.0 °F 100% 30.09 in 10.0 mi Calm Calm - N/A   Clear
10:35 PM 59.0 °F 59.0 °F 100% 30.09 in 10.0 mi Calm Calm - N/A   Clear
10:55 PM 59.0 °F 59.0 °F 100% 30.09 in 2.5 mi Calm Calm - N/A   Scattered Clouds
11:15 PM 59.0 °F 59.0 °F 100% 30.09 in 0.5 mi Calm Calm - N/A Fog Fog
11:35 PM 59.0 °F 59.0 °F 100% 30.09 in 0.5 mi Calm Calm - N/A Fog Fog
11:55 PM 59.0 °F 59.0 °F 100% 30.09 in 0.5 mi Calm Calm - N/A Fog Fog